Terug naar catalogus

STARLINK-32027

ActiefCommunicatieVLEO
NORAD 60143·PAYLOAD·🇺🇸 United States

Gelanceerd Jun 27, 2024 vanaf Cape Canaveral Space Force Station

Loading…

Volgende Passages (komende 24 uur)

TLE

VersSource: CelesTrak SupGP

Epoch: Sep 14, 2026, 21:04 UTC

1 60143C 24120J   26257.87826389 -.00033055  00000+0 -97620-3 0  2577
2 60143  53.1573 157.6575 0001361 104.2578 149.5357 15.34420312    14

Volg STARLINK-32027 in realtime met AllMySat

Download on the App Store